STARLINK-30783, 58130

Orbit data source: Space-Track

STARLINK-30783, 58130 is a payload satellite owned by SpaceX/Seattle (US) in LEO that was launched on Sun, 22 Oct 2023 UTC via an FALCON 9 launch vehicle from the Air Force Eastern Test Range (AFETR). Payload-class satellites include a variety of spacecraft equipped with specific instruments for various scientific and technological missions. These include communications satellites like Starlink; space stations such as the ISS; scientific satellites like the Hubble; Earth observation satellites from companies like Planet Labs, Umbra, and HawkEye 360; GPS; miniature CubeSats for education and research; and military/defense satellites.

Loading next visibility...
Identifier
58130, 2023-162N
Orbit
LEO
Country
Flag of USUS
Related business
Manufacturer
SpaceX/Seattle
Mission
Operational Commercial Communications
Bus & Motor
STARLINK V2M, Unknown motor
Mass
730 kg wet, ~700 kg dry
Launch date (UTC)
2023-10-22 (2 years ago)
Launch vehicle
FALCON 9
Launch site
Air Force Eastern Test Range (AFETR)
Object type
Payload
Rocket body
Debris
Shape & HBR
Box + 2 Pan, 17.7 m
Radar Cross Section
33.884 m², Large (>1 m²)

Expand to show TLE details & history
Last TLE update: 1 day ago

TLE from 1 day ago
0 STARLINK-30783
1 58130U 23162N   25348.40400758  .00004736  00000-0  36565-3 0  9999
2 58130  43.0021 236.2674 0001005 263.4140  96.6588 15.02514164119478
Epoch: 2025-12-14T09:41Z
TLE epoch observation values (Epoch: 2025-12-14T09:41:46.254Z)
Latitude
-0.00003°
Longitude
7.50722°
Altitude
559.006 km
Speed
7.584 km/s
True Right ascension
15h 45m 04s
True Declination
0° 00' 00"
Sunlit
Object was in daylight at epoch
Visualization orbit readout
Latitude
Unknown
Longitude
Unknown
Altitude
Unknown
Speed
Unknown
Apparent Right ascension
Unknown
Apparent Declination
Unknown
Sunlit
N/A
Visualization observer readout
Local Sidereal Time
13:23:42
Azimuth
Unknown
Elevation
Unknown
Doppler factor
Unknown
Orbital elements
Apogee altitude
561.768 km
Perigee altitude
560.373 km
Semi-major axis
6,939.207 km
Eccentricity
0.0001
Inclination
43.0021°
RAAN
236.2674°
Arg. of periapsis
263.414°
True anomaly
96.67024°
Mean anomaly
96.6588°
Eccentric anomaly
96.66452°
Mean motion
3.75473 °/min
Orbital period
95.88 mins
BSTAR
0.00036565
Loading maneuver chart data...
Computing Atmospheric mass density...
Loading historical data...
Loading historical data...
Loading historical data...
Loading historical data...
Loading historical data...
Loading historical data...
Loading historical data...

Documentation

Showing up to 5 results
|